Regional Weather Roundup
Issued by NWS

Home | Current Version | Previous Version | Graphics & Text | Print | Product List | Glossary On
Versions: 1 2 3 4 5 6 7 8 9 10 11 12 13 14 15 16 17 18 19 20 21 22 23 24 25 26 27
000
ASUS45 KSLC 281710
RWRUT

UTAH REGIONAL WEATHER ROUNDUP
NATIONAL WEATHER SERVICE SALT LAKE CITY UT
1100 AM MDT SAT MAY 28 2016

UTZ001>011-023>025-281800-

NORTHERN UTAH

CITY           SKY/WX    TMP DP  RH WIND       PRES   REMARKS
BRIGHAM CITY     N/A     62  40  43 N3        30.06S
HILL AFB       SUNNY     61  44  52 VRB3      30.05S
LOGAN          SUNNY     57  47  69 CALM      30.06F
OGDEN          SUNNY     62  46  55 NW7       30.04S
PROVO AIRPORT  MOSUNNY   61  43  51 W6        30.05S
SALT LAKE CITY MOSUNNY   65  43  44 VRB3      30.04R
VERNAL         PTSUNNY   59  40  49 E3        30.08F
WENDOVER       SUNNY     63  34  34 SE6       30.06S
HEBER CITY     MOSUNNY   59  43  55 CALM      30.06S
WEST JORDAN    SUNNY     63  43  48 W3        30.05F

$$

UTZ012>022-026-027-281800-

SOUTHERN/CENTRAL UTAH

CITY           SKY/WX    TMP DP  RH WIND       PRES   REMARKS
BLANDING       SUNNY     65  33  30 SE6       30.18S
BRYCE CANYON   MOSUNNY   61  29  29 E8        30.16S
CEDAR CITY     MOSUNNY   67  32  27 SW7       30.04F
DELTA          SUNNY     64  36  34 S3        30.04S
HANKSVILLE     MOSUNNY   70  36  28 NE7       30.05S
MILFORD        SUNNY     68  35  29 VRB6      30.03F
MOAB/CYNLANDS  MOSUNNY   70  37  29 CALM      30.03F
PRICE          CLOUDY    61  32  33 S5        30.09S
ST GEORGE      SUNNY     73  34  23 NW6       29.95F
KANAB          SUNNY     73  30  20 SW6       30.06F

$$

REGIONAL REPORTS     COLORADO/ARIZONA

CITY           SKY/WX    TMP DP  RH WIND       PRES   REMARKS
CRAIG, CO      SUNNY     60  40  47 VRB3      30.11S
GRAND JUNCTION SUNNY     63  39  41 MISG      30.07F
RIFLE          SUNNY     62  36  37 VRB3      30.10F
MONTROSE       SUNNY     64  34  32 W5        30.13S
CORTEZ         SUNNY     67  30  25 E5        30.10F
PAGE, AZ       SUNNY     71  34  25 N5        30.01S
GRAND CANYON   CLOUDY    67  24  19 S7        30.12R
KINGMAN        SUNNY     82  28  14 E9        29.94S
FLAGSTAFF      SUNNY     64  25  22 VRB6      30.13S

$$

REGIONAL REPORTS    NEVADA/IDAHO/WYOMING

CITY           SKY/WX    TMP DP  RH WIND       PRES   REMARKS
LAS VEGAS, NV  PTSUNNY   80  31  16 CALM      29.83S
ELY            SUNNY     58  38  47 VRB5      30.08F
ELKO           SUNNY     59  33  37 VRB3      30.07F
POCATELLO, ID  SUNNY     59  31  34 SW18G24   30.08F
BURLEY         SUNNY     57  33  40 W12G20    30.08S
EVANSTON, WY   MOSUNNY   55  36  48 SW12      30.11F
ROCK SPRINGS   SUNNY     56  33  42 SW15      30.10S
KEMMERER         N/A     54  36  50 W7        30.12F

$$




USA.gov is the U.S. government's official web portal to all federal, state and local government web resources and services.